Home   Weather   Visalia   Past weeks

Flag for USA Past Weather in Visalia, California, USA — Yesterday and Last 2 Weeks

Now
70 °F

Clear.


Feels Like: 74 °F
Forecast: 63 / 96 °F
Wind: 7 mph from Northwest

Location: Visalia Municipal

Current Time: Jul 26, 2017 at 3:56:49 am

Latest Report: Jul 26, 2017 at 2:56 am


Visibility: 10 mi

Pressure: 29.94 "Hg

Humidity: 68%

Dew Point: 59 °F

Location of VisaliaLocation

Past Weather in Visalia — Graph

°F

Visalia Temperature Yesterday

Maximum temperature yesterday: 96 °F (at 3:56 pm)
Minimum temperature yesterday: 68 °F (at 5:56 am)
Average temperature yesterday: 81 °F

High & Low Weather Summary for the Past Weeks

 TemperatureHumidityPressure
High104 °F (Jul 23, 5:56 pm)87% (Jul 17, 4:56 am)30.02 "Hg (Jul 17, 4:56 am)
Low61 °F (Jul 20, 5:56 am)16% (Jul 23, 5:56 pm)29.69 "Hg (Jul 23, 6:56 pm)
Average82 °F47%29.88 "Hg
* Reported Jul 11 1:56 am — Jul 26 1:56 am, Visalia. Weather by CustomWeather, © 2017

Note: Actual official high and low records may vary slightly from our data, if they occured in-between our weather recording intervals... More about our weather records

Advertising

Visalia Weather History for the Previous 24 Hours

Scroll right to see more
 ConditionsComfort  
Time TempWeatherWind HumidityBarometerVisibility
1:56 am
Wed, Jul 26
71 °FClear.7 mph63%29.94 "Hg10 mi
12:56 am76 °FClear.No wind47%29.94 "Hg10 mi
11:56 pm
Tue, Jul 25
76 °FClear.No wind45%29.93 "Hg10 mi
10:56 pm78 °FClear.3 mph42%29.91 "Hg10 mi
9:56 pm80 °FClear.7 mph36%29.90 "Hg10 mi
8:56 pm84 °FClear.8 mph41%29.88 "Hg10 mi
7:56 pm92 °FSunny.No wind32%29.85 "Hg10 mi
6:56 pm94 °FSunny.3 mph31%29.85 "Hg10 mi
5:56 pm96 °FSunny.5 mph25%29.84 "Hg10 mi
4:56 pm95 °FSunny.7 mph26%29.86 "Hg10 mi
3:56 pm96 °FSunny.8 mph24%29.87 "Hg10 mi
2:56 pm95 °FSunny.9 mph25%29.88 "Hg10 mi
1:56 pm92 °FSunny.8 mph30%29.90 "Hg10 mi
12:56 pm89 °FSunny.7 mph35%29.91 "Hg10 mi
11:56 am87 °FSunny.5 mph39%29.93 "Hg10 mi
10:56 am82 °FSunny.6 mph48%29.93 "Hg10 mi
9:56 am79 °FSunny.3 mph58%29.93 "Hg10 mi
8:56 am75 °FSunny.No wind62%29.92 "Hg10 mi
7:56 am70 °FSunny.3 mph71%29.92 "Hg10 mi
6:56 am69 °FSunny.5 mph68%29.90 "Hg10 mi
5:56 am68 °FClear.6 mph70%29.89 "Hg10 mi
4:56 am69 °FClear.No wind68%29.88 "Hg10 mi
3:56 am69 °FClear.No wind68%29.87 "Hg10 mi
Weather by CustomWeather, © 2017

See weather overviewHow to use our weather pages